www.pogodaiklimat.ru

Погода и климат >> Архив погоды >> Россия >> Якутия >> Томпо


АРХИВ ПОГОДЫ в Томпо

Время (UTC), дата Ветер
(напр.,м/с)
 
Видим.   Явления Облачность Т
(С)
Тd
(С)
f
(%)
Тe
(С)
Тes
(С)
Комфортность P
(гПа)
Po
(гПа)
Тmin
(С)
Tmax
(С)
R
(мм)
R24
(мм)
S
(см)
06 12.07 С 2 50 км 9/1 600 м
[Cu hum Ci fib]
+29.6 +6.4 23 +28 +35 жарко 1005.8 961.5
09 12.07 С 3 50 км 6/1 600 м
[Cu hum Ci fib]
+29.2 +8.6 28 +29 +30 жарко 1005.0 960.8 +30.8
12 12.07 штиль 0 50 км ясно +24.7 +10.8 42 +26 +26 жарко 1006.1 961.0
15 12.07 штиль 0 50 км ясно +13.8 +8.7 71 +14 +14 1008.5 961.7
18 12.07 штиль 0 50 км ясно +9.8 +7.9 88 +9 +9 1009.7 962.2
21 12.07 штиль 0 50 км ясно +11.7 +8.5 81 +11 +15 1009.8 962.6 +9.0
00 13.07 ЮВ 1 50 км 4/0
[Cs]
+18.4 +10.6 60 +20 +29 1007.9 961.9
03 13.07 ЮВ 1 50 км 4/0
[Cs]
+26.1 +11.6 40 +27 +40 жарко 1005.6 960.9
06 13.07 штиль 0 50 км 6/0
[Cs]
+31.4 +9.6 26 +31 +41 жарко 1002.7 958.9
09 13.07 штиль 0 50 км 6/0
[Ci fib]
+32.0 +6.6 20 +30 +33 жарко 1001.9 958.1 +32.2
12 13.07 Ю 3
{10}
50 км 3/3 1000 м
[Sc]
+23.8 +12.5 49 +26 +26 жарко 1004.6 959.6
15 13.07 ЮВ 2 50 км 3/0
[Ci fib]
+19.4 +12.9 66 +21 +21 комфорт 1006.6 960.8
18 13.07 штиль 0 50 км 3/0
[Ci fib]
+14.8 +10.8 77 +15 +15 1008.1 961.4
21 13.07 штиль 0 50 км 3/0
[Ci fib]
+14.1 +11.7 85 +14 +17 1008.5 961.8 +13.0
00 14.07 Ю 3 50 км ясно +23.7 +11.9 48 +25 +33 комфорт 1005.7 960.6
03 14.07 ЮВ 4 50 км ясно +27.2 +12.7 41 +29 +37 жарко 1004.0 959.5
06 14.07 Ю 3 50 км 3/1 600 м
[Cu hum Ci fib]
+19.1 +12.0 63 +20 +26 1002.4 958.3
09 14.07 Ю 1 1000 м мгла 10/3 600 м
[Cb cap Cs]
+26.8 +11.4 38 +28 +29 жарко 1003.0 958.4 +29.5
12 14.07 штиль 0 20 км дым 8/3 1000 м
[Sc diur, vesp Ci fib]
+23.9 +12.8 50 +26 +26 жарко 1004.2 959.2
15 14.07 штиль 0 20 км дым 8/4 1000 м
[Sc Ci fib]
+17.0 +13.8 81 +17 +17 1007.4 961.1
18 14.07 штиль 0 20 км дым 8/3 1000 м
[Cb calv Ci fib]
+14.0 +10.8 81 +14 +14 1008.9 962.1
21 14.07 штиль 0 4000 м дым 8/5 600 м
[Cb cap Ci fib]
+14.3 +11.9 85 +14 +15 1008.0 961.3 +13.1
00 15.07 Ю 3 2000 м гроза, ливневой дождь 10/10 600 м
[Cb cap]
+15.8 +15.3 97 +15 +15 1008.9 962.6
03 15.07 штиль 0 50 км {гроза, ливн. осадки} 9/9 600 м
[Cb cap]
+19.1 +16.3 84 +21 +22 комфорт 1008.4 962.5
06 15.07 штиль 0 4000 м дым {гроза, ливн. осадки} 10/10 600 м
[Cb cap]
+20.1 +15.9 77 +22 +22 комфорт 1007.5 961.8
09 15.07 штиль 0 50 км 10/6 600 м
[Cb cap As op]
+20.7 +15.7 73 +24 +24 комфорт 1006.9 961.4 +21.9 11
12 15.07 штиль 0 50 км 10/8 1000 м
[Sc Ci fib]
+19.0 +16.7 87 +20 +20 1007.2 961.3
15 15.07 штиль 0 50 км 10/5 1000 м
[Sc Ci fib]
+14.1 +13.7 97 +14 +14 1008.8 962.1
18 15.07 штиль 0 50 км 10/5 1000 м
[Sc Ci fib]
+12.5 +12.1 97 +12 +12 1009.6 962.6
21 15.07 С 1 50 км ясно +13.2 +11.3 88 +13 +16 1009.4 962.6 +11.9
00 16.07 С 3 50 км 4/0
[Ci fib]
+20.0 +4.3 36 +21 +27 комфорт 1008.0 962.1
03 16.07 С 1 50 км 1/0
[Ci fib]
+23.8 +4.2 28 +23 +37 комфорт 1006.0 960.9
06 16.07 штиль 0 50 км 3/0
[Ci fib]
+25.6 +0.4 19 +24 +34 комфорт 1004.1 959.1
09 16.07 С 2 50 км 8/0
[Ac As Ci fib]
+24.2 +4.6 28 +24 +25 комфорт 1003.0 958.0 +26.7
12 16.07 штиль 0 50 км 10/0
[Cs]
+20.9 +10.5 51 +22 +22 комфорт 1004.0 958.5
15 16.07 штиль 0 50 км ясно +10.9 +6.7 75 +10 +10 1006.3 959.1
18 16.07 штиль 0 50 км ясно +9.7 +7.4 86 +9 +9 1007.4 960.0
21 16.07 штиль 0 50 км ясно +8.5 +5.6 82 +8 +11 1007.1 959.5 +5.9
00 17.07 С 1 50 км 10/0
[As trans]
+17.4 +8.0 54 +18 +22 1004.3 958.3
03 17.07 штиль 0 50 км 8/0
[Ac As]
+21.9 +6.7 37 +23 +30 комфорт 1001.9 956.6
06 17.07 ЮВ 2 50 км 8/8 600 м
[Sc]
+24.4 +7.3 33 +25 +26 комфорт 998.8 954.1
09 17.07 Ю 3 50 км 10/5 1000 м
[Sc As op]
+22.4 +8.7 42 +24 +24 комфорт 997.8 952.9 +25.7
12 17.07 штиль 0 50 км в посл. час дождь 10/5 1000 м
[Sc As op]
+18.3 +12.6 69 +19 +19 997.4 951.9
15 17.07 Ю 3 10 км слаб. дождь 10/4 1000 м
[Sc As op]
+17.6 +11.8 69 +18 +18 995.8 950.2
18 17.07 З 2 4000 м дождь 10/0
[As op]
+13.9 +12.8 93 +13 +13 995.3 949.2
21 17.07 штиль 0 4000 м дождь 10/0 600 м
[As op]
+11.8 +10.8 94 +11 +12 998.0 951.3 +11.6 10
00 18.07 С 2 50 км {дождь} 10/0 600 м
[As op]
+12.7 +10.4 86 +12 +14 998.7 952.2
03 18.07 штиль 0 10 км слаб. дождь 10/0
[As op]
+8.9 +7.2 89 +8 +11 1002.5 955.1
06 18.07 С 2 50 км {дождь} 10/10 300 м
[Frnb]
+7.5 +5.5 87 +5 +5 1004.3 956.7
09 18.07 СЗ 1 50 км 10/10 300 м
[Frnb]
+7.0 +4.0 81 +6 +6 1005.9 958.1 +12.7 2
12 18.07 СЗ 1 10 км слаб. дождь 10/10 300 м
[Frnb]
+5.8 +4.4 91 +5 +5 1006.8 958.8 -0.8
15 18.07 штиль 0 10 км слаб. дождь 10/10 300 м
[Frnb]
+5.3 +4.1 92 +4 +4 1007.0 958.8
18 18.07 штиль 0 50 км {дождь} 10/10 300 м
[Frnb]
+5.1 +3.7 91 +4 +4 1007.0 958.8
21 18.07 штиль 0 50 км 10/0
[As op]
+6.1 +2.7 79 +5 +6 1006.6 958.6 +5.1 2
00 19.07 С 1 50 км 10/0
[As op]
+6.1 +3.0 80 +5 +7 1007.4 959.3
03 19.07 штиль 0 10 км слаб. дождь 10/4 300 м
[Frnb As op]
+6.2 +3.6 83 +5 +7 1008.5 960.4

 

Местоположение метеостанции Томпо (Якутия, Россия): широта 63.95 долгота 135.80 высота над уровнем моря 402 м.

В архиве по умолчанию представлена погода в Томпо за последнюю неделю. Архивные данные за месяц целиком и за предыдущие месяцы, начиная с января 2011 года, Вы можете получить, выбрав интересующий диапазон дат из раскрывающегося списка и нажав кнопку "Ввод!".


*Определитесь, кто Вы:
робот инопланетянин человек

Внимание! Время в таблицах - всемирное. Для получения местного времени необходимо прибавить поправку, которая равна 9 ч.

Смотрите также архив погоды в соседних городах и на ближайших метеорологических станциях:

Погода в Теплом Ключе (Якутия, Россия) (139 км)
Погода в Крест-Хальджае (Якутия, Россия) (144 км)
Погода в Иэме (Якутия, Россия) (150 км)
Погода в Верхоянском Перевозе (Якутия, Россия) (200 км)
Погода в Восточной (Якутия, Россия) (204 км)
Погода в Ытык-Кюёле (Якутия, Россия) (210 км)
Погода в Охотском Перевозе (Якутия, Россия) (232 км)
Погода в Чурапче (Якутия, Россия) (268 км)
Погода в Сеген-Кюеле (Якутия, Россия) (268 км)
Погода в Юртах (Якутия, Россия) (293 км)

Пояснения к столбцам:

Ветер - указаны скорость ветра в м/с - средняя за 10 мин, порывы в срок и между сроками (в фигурных скобках) и направление, откуда дует ветер: С - северный, СВ - северо-восточный, В - восточный, ЮВ - юго-восточный, Ю - южный, ЮЗ - юго-западный, З - западный, СЗ - северо-западный.
Видимость - горизонтальная дальность видимости в метрах или километрах. При видимости от 1 до 10 км при отсутствии осадков обычно наблюдается дымка, при ухудшении видимости до 1 км и менее - туман. В сухую погоду видимость может ухудшаться дымом, пылью или мглою.
Явления - указаны атмосферные явления, наблюдавшиеся в срок или в последний час перед сроком; фигурными скобками обозначены явления, наблюдавшиеся между сроками (за 1-3 часа до срока); квадратными скобками обозначены град или гололедные отложения с указанием их диаметра в мм.
Облачность - указаны через наклонную черту общая и нижняя облачность в баллах и высота нижней границы облаков в метрах; квадратными скобками обозначены формы облаков: Ci - перистые, Cs - перисто-слоистые, Cc - перисто-кучевые, Ac - высококучевые, As - высокослоистые, Sc - слоисто-кучевые, Ns - слоисто-дождевые, Cu - кучевые, Cb - кучево-дождевые. Подробнее классификацию облаков см. в Атласе облаков (PDF).
T - Температура воздуха - температура, измеренная на высоте 2 м над землей.
Td - Температура точки росы - температура, при понижении до которой содержащийся в воздухе водяной пар достигнет насыщения.
f - Относительная влажность воздуха - влажноcть воздуха, измеренная на высоте 2 м над землей.
Te - Эффективная температура - температура, которую ощущает одетый по сезону человек в тени. Характеристика душности погоды. При расчете учитывается влияние влажности воздуха и скорости ветра на теплоощущения человека.
Tes - Эффективная температура на солнце - температура, которую ощущает человек, с поправкой на солнечный нагрев. Характеристика знойности погоды. Зависит от высоты солнца над горизонтом, облачности и скорости ветра. Ночью, в пасмурную погоду, а также при ветре 12 м/с и более поправка равна нулю.
P - Атмосферное давление - приведенное к уровню моря атмосферное давление.
Po - Атмосферное давление - измеренное на уровне метеостанции атмосферное давление.
Tmin - Минимальная температура - минимум температуры воздуха на высоте 2 м над землей.
Tmax - Максимальная температура - максимум температуры воздуха на высоте 2 м над землей.
R - Количество осадков - Количество выпавших осадков за период времени, мм. При наведении курсора мыши на число - период времени, за который выпало указанное количество осадков.
R24 - Количество осадков - Количество выпавших осадков за 24 часа, мм.
S - Снежный покров - Высота снежного покрова, см. При наведении курсора мыши на число - состояние снежного покрова и степень покрытия местности в баллах.